Wind_Speed
9 8 7 7 7 7 6 5 5 5 4 3 2 2 2 1 0 2 4 5 6 7 10 10 10 10 10 9 9 9 8 8 7 7 7 7 6 6 6 6 6 6 6 6 6 5 6 6 5
9 8 7 7 7 6 6 5 5 5 4 3 2 2 2 1 1 2 3 5 7 8 10 10 11 11 11 10 10 9 9 8 7 7 6 6 6 6 5 6 5 5 5 5 5 5 5 5 4
9 8 7 7 6 4 4 5 5 5 4 4 3 3 2 2 2 3 4 5 7 8 10 11 11 11 11 11 11 10 9 8 7 7 6 6 5 5 5 5 5 4 5 4 4 4 4 4 3
8 8 7 6 5 4 4 5 5 5 5 4 4 4 4 3 2 3 4 5 7 9 10 11 11 12 12 12 11 11 10 9 8 7 6 5 5 4 4 4 4 3 4 3 3 3 3 3 2
8 8 7 6 5 5 6 6 6 6 5 6 5 5 5 4 3 3 3 5 7 9 11 11 12 13 13 13 13 12 11 10 9 8 6 5 4 4 3 3 3 3 2 2 2 2 2 2 2
8 7 6 4 6 6 7 7 6 6 7 7 7 6 6 5 4 3 4 5 6 9 10 12 13 13 14 14 14 13 11 10 9 8 7 5 4 3 3 2 1 1 1 1 2 1 1 2 1
8 7 6 5 6 6 7 7 8 8 8 8 8 7 6 5 5 5 4 6 7 9 10 11 12 14 14 15 15 14 13 11 10 9 8 6 4 3 2 1 0 0 1 1 1 2 2 2 1
8 7 7 6 6 6 7 7 8 8 8 8 8 8 7 7 6 6 6 6 8 9 11 12 13 15 16 16 16 15 14 13 11 10 8 7 5 3 2 1 1 1 1 1 2 2 3 3 2
8 7 6 6 5 6 7 7 8 9 9 9 9 9 9 9 9 8 7 8 9 10 12 13 15 16 17 17 17 17 16 14 13 10 8 7 5 3 2 2 2 2 2 2 2 3 4 3 3
8 6 7 6 6 6 7 7 7 9 9 9 10 10 10 10 10 9 9 9 10 11 12 14 15 17 19 19 19 19 17 15 13 11 9 7 5 4 4 3 3 3 3 3 3 3 3 3 3
9 8 8 7 7 7 7 7 8 9 10 11 11 11 11 11 11 11 10 11 12 13 14 15 16 18 19 20 20 19 18 16 14 12 10 8 7 5 5 4 3 3 3 4 3 3 3 3 2
10 9 8 7 7 7 6 7 8 9 10 11 12 12 12 12 12 12 11 12 12 13 14 16 17 19 20 21 20 20 19 17 15 13 11 9 8 6 5 5 4 4 4 4 3 3 2 2 2
10 9 8 8 8 7 7 8 9 10 11 12 13 13 13 13 13 13 13 13 13 13 14 16 19 19 21 22 21 22 20 19 16 14 12 10 9 7 6 5 4 4 4 4 2 2 2 1 2
10 9 9 9 8 8 8 9 10 11 12 14 14 14 14 14 13 14 14 14 14 14 15 17 19 19 21 23 23 23 22 20 18 16 13 11 9 7 6 5 4 4 4 3 2 2 2 2 2
10 9 10 10 10 9 9 10 12 13 14 15 15 15 15 15 15 15 15 14 14 15 16 17 19 20 23 25 25 24 23 20 19 16 14 12 10 8 7 6 5 4 3 3 3 2 2 2 2
10 10 10 12 11 11 10 11 14 14 15 15 15 15 15 15 15 15 15 15 15 16 17 16 17 20 22 24 25 24 23 21 19 16 14 12 10 9 8 7 5 4 3 3 3 2 2 1 1
11 10 11 13 12 12 11 12 14 15 15 15 16 16 16 16 16 15 15 15 14 14 14 15 17 19 23 24 24 23 22 21 19 16 14 12 10 9 8 7 6 5 4 3 3 2 2 2 1
13 12 12 13 13 11 12 12 14 15 15 15 16 16 16 16 16 14 13 13 12 12 12 12 17 20 22 23 23 22 22 21 19 17 14 12 10 9 8 7 6 5 5 4 3 3 2 2 2
12 12 13 14 13 12 12 13 14 15 15 15 16 16 16 15 15 13 12 13 11 11 11 12 15 19 22 23 22 21 21 20 19 17 15 12 11 9 7 7 6 6 6 5 4 4 3 3 2
12 12 12 13 13 12 11 12 15 15 15 15 15 15 15 14 14 13 11 11 9 10 11 12 14 18 22 23 21 20 20 20 18 17 16 14 12 10 8 7 7 7 6 6 5 5 5 4 3
12 12 13 13 12 12 11 12 14 14 14 14 15 14 13 13 13 11 10 9 8 9 9 11 14 19 21 21 21 21 20 19 18 17 16 14 13 11 9 8 8 8 7 7 7 6 6 5 4
13 13 13 13 12 12 12 10 13 14 14 14 13 13 13 12 12 10 10 9 8 7 7 9 13 17 21 22 20 21 20 19 18 17 16 14 13 12 10 10 9 8 8 8 8 8 7 6 5
14 15 14 13 12 12 12 11 11 13 13 13 12 12 12 11 10 11 10 9 7 6 7 8 12 15 19 20 19 20 20 19 19 18 16 15 14 13 12 11 11 10 9 10 9 8 8 7 7
14 14 13 13 12 12 12 11 10 12 12 12 12 11 11 10 9 9 9 8 6 5 5 7 11 13 17 19 19 19 19 19 18 18 17 16 15 14 13 13 12 11 11 10 10 9 9 9 8
15 13 13 12 12 12 13 12 10 11 11 11 11 10 10 9 8 9 8 7 6 4 4 5 9 12 15 17 19 19 18 18 18 18 17 16 16 15 14 14 13 13 12 11 11 11 11 10 10
16 14 14 13 12 12 15 13 10 10 10 10 11 10 10 10 9 8 8 7 6 5 3 5 7 9 12 15 18 19 18 17 17 17 17 16 16 16 15 15 14 14 13 13 13 13 13 13 12
16 16 15 16 15 14 14 14 12 11 11 10 11 11 10 10 9 9 8 7 6 4 3 4 6 8 10 13 15 17 18 16 16 17 17 17 17 16 16 16 15 15 15 14 15 15 15 14 14
18 18 17 16 16 15 13 13 12 12 11 11 11 10 10 9 9 9 9 7 6 3 3 4 5 8 10 11 13 15 17 16 16 17 16 16 17 16 15 15 16 17 16 16 16 17 17 17 17
20 19 19 18 18 16 14 13 14 12 12 12 11 11 10 10 10 9 9 8 6 5 4 4 5 7 9 10 11 13 15 17 17 17 16 16 17 16 16 17 18 18 18 18 18 19 19 19 19
21 21 20 21 20 19 17 15 16 14 13 12 12 12 12 11 10 10 9 8 6 6 5 5 6 8 9 10 11 12 14 15 16 16 17 17 17 17 18 18 18 19 19 20 21 22 22 22 22
Wind_Direction
20 23 24 27 29 26 16 5 7 12 20 28 30 39 41 63 170 212 213 210 204 197 186 182 181 184 188 192 190 184 176 165 153 141 129 119 108 100 92 89 86 84 83 83 86 87 88 89 89
12 13 14 20 29 21 3 357 356 356 355 356 7 12 24 5 257 235 226 218 209 204 196 190 189 191 195 197 197 192 184 174 161 149 137 124 113 104 96 91 89 87 84 83 86 88 88 89 90
5 8 9 13 21 16 351 350 345 347 350 344 344 337 328 305 279 260 242 230 215 207 202 199 198 197 201 203 203 199 191 181 168 156 144 131 122 112 101 92 89 85 83 83 89 91 87 84 86
356 359 2 6 5 349 341 340 338 340 344 342 341 339 332 318 293 275 252 233 218 209 206 205 205 205 206 207 206 205 199 189 176 166 156 144 135 123 106 94 86 80 79 85 91 90 82 76 73
347 352 357 358 343 337 335 330 327 331 334 332 329 327 328 332 319 285 258 237 223 216 214 212 212 211 211 209 208 206 203 195 185 175 168 159 150 139 117 100 90 81 76 80 79 74 64 54 47
338 347 355 333 328 332 333 332 325 322 327 327 323 324 324 323 318 301 265 242 232 229 223 221 218 217 215 212 210 207 206 200 191 182 177 171 162 148 132 119 96 81 66 59 50 34 18 1 350
331 339 340 329 327 327 329 327 326 323 324 328 325 320 325 325 316 303 279 254 243 234 230 225 223 220 218 215 213 210 209 203 198 191 185 182 177 167 147 144 105 61 20 354 345 340 335 333 306
324 330 334 331 324 315 323 322 325 326 326 330 330 328 327 328 320 307 289 269 253 243 235 229 226 223 221 218 218 215 211 206 204 199 194 191 190 189 194 229 253 273 317 311 308 314 315 311 284
320 322 317 315 309 306 315 318 322 329 327 329 331 329 327 324 320 310 297 280 264 252 241 231 228 226 224 219 219 219 214 208 207 205 203 202 204 211 224 242 259 273 295 301 300 304 309 301 282
312 310 301 307 311 307 311 316 320 328 329 328 329 327 324 321 316 308 295 285 273 261 247 234 231 227 225 223 220 218 216 214 212 210 210 211 219 230 234 248 261 271 286 296 293 292 294 289 281
304 299 303 309 310 309 312 319 320 324 324 323 323 323 322 318 314 304 294 286 277 265 253 242 236 230 226 224 220 218 217 216 214 213 215 220 228 239 243 250 266 278 292 302 296 284 274 270 273
297 297 297 301 304 303 306 313 319 317 316 316 316 318 316 314 310 302 293 287 281 267 253 245 240 232 225 221 220 220 218 217 217 217 219 227 235 243 253 252 267 279 292 299 291 272 262 262 266
291 290 285 287 291 294 299 305 311 310 312 316 317 319 317 312 308 303 297 291 282 268 254 246 240 232 224 220 218 218 218 218 218 220 223 230 241 249 254 254 262 272 283 282 279 255 252 265 272
284 281 279 279 282 289 296 302 308 309 311 314 314 315 316 311 305 301 296 291 281 272 258 249 239 232 225 221 219 218 218 219 220 222 225 231 240 250 256 251 253 267 267 254 255 243 242 259 280
275 274 276 276 279 285 292 299 304 307 309 311 313 313 313 310 305 301 294 287 280 270 262 252 241 232 223 220 219 219 219 219 220 220 224 231 238 245 248 249 251 252 237 226 235 244 238 242 274
266 265 266 274 277 283 288 290 298 304 306 310 313 312 311 308 307 303 297 287 280 267 261 247 233 223 216 215 217 218 218 218 220 220 223 228 235 237 239 242 240 226 221 217 222 225 226 230 257
260 255 255 270 279 284 289 289 297 303 306 308 311 311 311 309 308 305 300 293 281 267 259 237 227 220 214 214 216 217 218 219 221 223 223 227 229 229 230 229 223 213 208 207 205 206 211 208 196
250 251 258 265 277 285 291 292 298 303 305 307 310 312 313 312 311 307 300 295 283 270 259 238 226 219 215 213 213 215 219 219 221 225 224 226 224 222 221 216 210 204 204 201 200 203 195 186 180
250 253 257 265 277 283 290 294 298 302 304 307 310 312 312 316 318 314 306 298 284 273 258 243 230 217 213 213 211 215 217 218 223 224 221 222 221 218 219 213 207 206 206 201 197 195 184 175 172
252 253 256 264 276 283 291 296 298 299 303 308 311 310 311 315 320 320 317 306 283 270 258 243 228 216 212 210 210 213 214 217 220 220 218 217 216 216 216 213 210 207 203 197 194 190 183 179 180
251 252 254 261 278 286 291 300 299 302 303 306 310 311 312 317 322 325 326 316 292 275 258 238 223 212 210 211 214 215 215 215 216 217 217 216 217 217 216 214 210 204 200 197 193 189 188 189 191
246 251 257 267 273 278 288 293 297 304 306 309 312 314 316 319 323 324 328 323 304 273 254 234 217 209 209 212 212 213 213 213 214 217 217 217 217 217 215 215 208 204 202 201 198 197 198 201 206
243 250 257 264 271 277 287 289 292 299 307 312 317 318 319 322 324 326 327 327 312 280 252 230 215 210 210 208 207 209 211 214 216 218 218 217 217 217 214 213 208 209 208 206 204 205 206 212 217
246 252 260 269 274 278 281 284 294 296 305 311 318 322 325 325 327 333 332 326 316 299 260 234 216 208 207 207 209 210 213 216 218 220 219 218 218 216 216 215 214 213 213 213 213 215 217 222 225
247 250 258 266 271 277 277 281 287 290 302 306 312 319 325 326 328 333 338 334 322 307 269 233 217 214 212 209 209 211 211 213 215 216 218 220 220 219 220 218 220 220 222 222 222 224 227 230 232
246 245 245 249 259 270 279 279 282 292 296 302 308 312 320 324 327 327 333 335 326 312 275 224 212 207 207 207 208 210 212 215 215 216 219 221 222 223 222 222 225 228 229 231 231 232 234 236 238
244 245 246 251 257 264 269 275 279 284 287 295 304 307 314 320 326 329 330 328 324 306 258 218 208 203 199 202 204 207 208 213 215 216 218 221 223 225 227 228 233 235 235 236 239 239 239 242 245
244 245 249 251 256 262 272 276 279 276 282 286 294 304 309 312 315 322 321 318 315 294 243 218 206 206 203 203 210 214 213 215 218 217 218 222 224 225 230 236 239 238 239 242 245 246 246 248 251
249 250 253 253 253 258 265 270 269 272 276 280 286 291 298 306 309 313 311 309 300 285 258 231 219 215 210 209 216 217 215 218 220 219 222 225 225 227 234 240 243 243 245 247 250 250 250 251 254
249 251 252 254 260 263 262 265 263 266 270 273 279 286 288 295 305 309 301 294 290 273 254 242 233 229 228 225 221 218 217 218 222 225 228 231 231 235 240 245 247 248 250 252 253 253 253 255 257
Height
5901 5901 5900 5900 5901 5901 5900 5899 5898 5896 5895 5894 5893 5892 5891 5891 5891 5893 5890 5889 5889 5890 5890 5891 5893 5894 5895 5896 5896 5897 5897 5898 5898 5898 5899 5899 5899 5899 5899 5899 5899 5899 5899 5899 5899 5899 5899 5898 5898
5901 5900 5900 5901 5901 5901 5900 5899 5897 5896 5895 5893 5892 5891 5890 5889 5889 5889 5888 5887 5888 5889 5889 5890 5892 5893 5894 5895 5896 5896 5897 5897 5898 5898 5898 5899 5899 5899 5899 5899 5899 5899 5899 5899 5899 5899 5899 5899 5898
5900 5900 5900 5900 5900 5901 5900 5898 5897 5895 5894 5892 5891 5890 5889 5889 5888 5887 5887 5887 5887 5887 5888 5889 5891 5892 5893 5894 5895 5896 5896 5897 5897 5898 5898 5898 5899 5899 5899 5899 5899 5899 5899 5899 5899 5899 5899 5898 5898
5900 5900 5900 5900 5900 5899 5898 5897 5896 5894 5893 5891 5890 5889 5888 5887 5886 5886 5885 5885 5885 5886 5887 5888 5889 5890 5892 5893 5894 5895 5895 5896 5896 5897 5898 5898 5899 5899 5899 5899 5899 5899 5899 5899 5899 5898 5898 5898 5898
5899 5899 5900 5899 5899 5898 5897 5896 5895 5894 5892 5891 5889 5888 5887 5886 5885 5884 5884 5884 5884 5885 5886 5887 5888 5889 5890 5891 5892 5893 5894 5895 5896 5896 5897 5898 5898 5898 5899 5899 5899 5899 5899 5898 5898 5898 5898 5898 5897
5898 5899 5900 5900 5898 5897 5896 5895 5894 5893 5891 5890 5889 5887 5886 5885 5884 5883 5882 5882 5883 5883 5884 5885 5886 5887 5888 5890 5891 5892 5893 5894 5895 5896 5897 5897 5898 5898 5898 5898 5898 5898 5898 5898 5897 5897 5897 5897 5897
5898 5898 5898 5898 5897 5896 5895 5894 5893 5892 5890 5889 5887 5886 5884 5883 5882 5881 5881 5881 5881 5881 5882 5883 5884 5885 5886 5888 5889 5891 5892 5893 5894 5895 5896 5896 5897 5897 5898 5898 5898 5898 5898 5897 5897 5897 5896 5896 5896
5895 5897 5896 5896 5896 5895 5894 5892 5891 5890 5889 5888 5886 5885 5884 5882 5881 5880 5879 5879 5879 5879 5880 5880 5881 5883 5884 5885 5887 5889 5890 5891 5892 5893 5894 5895 5896 5896 5897 5897 5897 5897 5897 5897 5896 5896 5896 5895 5895
5894 5896 5895 5894 5894 5893 5892 5891 5890 5889 5888 5886 5885 5884 5882 5880 5879 5878 5877 5877 5876 5877 5877 5877 5879 5880 5882 5883 5885 5887 5888 5889 5890 5892 5893 5894 5895 5895 5896 5896 5896 5896 5896 5896 5896 5895 5895 5894 5894
5892 5893 5893 5892 5892 5891 5890 5889 5889 5888 5886 5885 5883 5882 5880 5878 5877 5876 5875 5875 5874 5874 5874 5875 5876 5878 5879 5881 5883 5884 5886 5887 5889 5890 5892 5893 5893 5894 5895 5895 5895 5895 5895 5895 5894 5894 5894 5893 5893
5890 5890 5890 5889 5889 5889 5888 5888 5887 5886 5885 5883 5882 5880 5878 5876 5875 5873 5873 5872 5872 5871 5872 5872 5873 5875 5877 5878 5880 5882 5883 5885 5887 5889 5890 5891 5892 5893 5893 5893 5894 5894 5894 5893 5893 5893 5893 5892 5892
5888 5887 5887 5887 5887 5887 5886 5886 5885 5884 5883 5881 5879 5878 5876 5874 5872 5871 5870 5869 5868 5868 5868 5869 5870 5872 5874 5875 5877 5880 5881 5883 5885 5887 5888 5890 5891 5891 5892 5892 5892 5893 5892 5892 5892 5892 5892 5891 5891
5885 5885 5885 5885 5885 5885 5884 5884 5883 5882 5881 5879 5877 5875 5873 5871 5869 5868 5866 5865 5864 5864 5864 5864 5866 5868 5870 5872 5874 5877 5879 5881 5883 5885 5887 5888 5889 5890 5890 5891 5891 5891 5891 5891 5891 5891 5891 5891 5891
5883 5883 5883 5883 5883 5883 5882 5882 5881 5880 5878 5876 5874 5872 5870 5868 5866 5864 5862 5861 5860 5860 5860 5860 5861 5863 5866 5869 5872 5874 5877 5879 5881 5883 5885 5886 5887 5888 5889 5889 5890 5890 5890 5890 5890 5890 5890 5890 5890
5880 5881 5881 5881 5880 5880 5881 5880 5879 5878 5876 5874 5872 5870 5867 5865 5863 5861 5859 5857 5856 5855 5855 5855 5857 5859 5862 5865 5868 5871 5874 5876 5878 5880 5882 5884 5886 5887 5887 5888 5888 5889 5889 5889 5889 5890 5890 5890 5889
5878 5879 5880 5879 5878 5878 5880 5880 5877 5875 5873 5871 5869 5867 5864 5862 5859 5857 5855 5853 5852 5851 5850 5850 5852 5854 5857 5861 5865 5868 5871 5873 5876 5878 5880 5882 5884 5885 5886 5887 5887 5888 5888 5888 5889 5889 5889 5889 5889
5876 5877 5878 5877 5876 5876 5877 5876 5875 5873 5871 5869 5866 5864 5861 5859 5856 5853 5851 5848 5847 5847 5846 5846 5848 5851 5854 5858 5861 5865 5868 5871 5873 5876 5878 5880 5882 5883 5884 5885 5886 5886 5887 5888 5888 5889 5889 5889 5889
5874 5875 5874 5874 5873 5874 5874 5873 5872 5870 5868 5866 5864 5861 5858 5855 5853 5850 5847 5845 5844 5843 5843 5843 5845 5848 5851 5855 5859 5863 5866 5869 5871 5874 5876 5878 5880 5881 5883 5883 5884 5885 5886 5887 5887 5888 5889 5889 5889
5870 5871 5871 5871 5871 5871 5871 5871 5869 5868 5866 5864 5861 5858 5855 5852 5850 5847 5844 5842 5840 5840 5840 5841 5843 5845 5849 5852 5856 5860 5863 5867 5869 5872 5874 5876 5878 5880 5881 5882 5883 5885 5885 5886 5887 5887 5888 5889 5889
5866 5867 5868 5868 5868 5869 5869 5868 5867 5865 5863 5861 5859 5856 5853 5850 5847 5844 5842 5839 5838 5837 5837 5838 5840 5843 5846 5850 5854 5857 5861 5864 5867 5870 5872 5874 5876 5878 5879 5881 5882 5883 5884 5885 5886 5887 5888 5888 5889
5863 5864 5865 5865 5865 5866 5866 5866 5864 5862 5860 5858 5856 5853 5850 5848 5845 5842 5839 5837 5835 5835 5834 5835 5837 5840 5843 5847 5851 5855 5858 5861 5865 5868 5870 5872 5874 5876 5878 5880 5881 5882 5883 5884 5885 5886 5887 5888 5889
5859 5860 5861 5862 5863 5865 5864 5864 5862 5859 5857 5855 5853 5851 5848 5845 5843 5841 5838 5836 5834 5833 5832 5833 5834 5837 5841 5845 5849 5852 5856 5859 5863 5865 5868 5870 5872 5874 5876 5878 5880 5881 5882 5883 5884 5885 5886 5887 5888
5856 5857 5858 5859 5860 5861 5861 5861 5862 5857 5855 5853 5851 5848 5846 5844 5842 5839 5837 5834 5832 5831 5831 5831 5833 5835 5838 5842 5846 5850 5854 5857 5860 5863 5865 5868 5870 5873 5875 5876 5878 5880 5881 5882 5883 5884 5886 5887 5887
5852 5854 5855 5856 5858 5859 5859 5858 5858 5855 5853 5850 5848 5846 5844 5842 5840 5838 5835 5833 5832 5830 5830 5830 5832 5834 5837 5841 5844 5848 5851 5854 5857 5860 5863 5866 5869 5871 5873 5874 5876 5878 5880 5881 5882 5883 5884 5885 5886
5848 5851 5854 5855 5856 5857 5855 5854 5855 5852 5850 5848 5846 5844 5843 5841 5839 5837 5835 5833 5831 5830 5829 5829 5831 5832 5835 5839 5842 5845 5849 5852 5855 5858 5861 5864 5866 5869 5871 5872 5874 5876 5878 5879 5880 5881 5883 5884 5884
5845 5848 5851 5853 5854 5854 5851 5850 5851 5849 5847 5845 5844 5842 5841 5839 5838 5836 5834 5832 5830 5829 5828 5829 5830 5832 5834 5837 5840 5844 5847 5849 5852 5856 5859 5861 5864 5867 5868 5870 5872 5874 5875 5877 5878 5879 5880 5881 5882
5841 5843 5846 5848 5848 5849 5849 5848 5847 5846 5844 5843 5842 5840 5839 5838 5836 5835 5833 5831 5830 5829 5829 5829 5830 5832 5834 5836 5839 5842 5845 5848 5850 5853 5856 5859 5861 5864 5866 5868 5869 5871 5872 5874 5875 5876 5877 5878 5879
5837 5839 5840 5842 5844 5845 5846 5846 5845 5843 5842 5841 5839 5838 5837 5836 5834 5833 5832 5830 5830 5829 5829 5829 5830 5831 5833 5835 5838 5840 5843 5846 5848 5851 5854 5856 5859 5861 5863 5865 5866 5868 5869 5870 5872 5873 5874 5875 5875
5833 5834 5835 5838 5839 5841 5842 5845 5841 5839 5839 5838 5837 5836 5835 5834 5832 5832 5831 5830 5829 5829 5829 5830 5830 5831 5833 5835 5836 5838 5841 5843 5846 5849 5851 5853 5856 5858 5860 5861 5862 5864 5865 5866 5867 5868 5869 5870 5871
5827 5829 5831 5832 5833 5834 5836 5841 5836 5836 5835 5834 5834 5833 5832 5831 5830 5829 5829 5828 5828 5828 5828 5829 5830 5831 5832 5833 5835 5837 5839 5842 5844 5846 5849 5851 5853 5854 5856 5857 5858 5860 5861 5862 5862 5863 5864 5865 5866